• MPC Preparation (Info)

  • MPEC 2011-V27 : 2011 VV5

    The following Minor Planet Electronic Circular may be linked-to from your own Web pages, but must not otherwise be redistributed electronically.

    A form allowing access to any MPEC is at the bottom of this page.


    Read MPEC 2011-V26 Read MPEC 2011-V28


    M.P.E.C. 2011-V27                                Issued 2011 Nov. 5, 17:43 UT
    
         The Minor Planet Electronic Circulars contain information on unusual
             minor planets and routine data on comets.  They are published
       on behalf of Commission 20 of the International Astronomical Union by the
              Minor Planet Center, Smithsonian Astrophysical Observatory,
                              Cambridge, MA 02138, U.S.A.
    
                 Prepared using the Tamkin Foundation Computer Network
    
                                  MPC@CFA.HARVARD.EDU
                URL https://www.minorplanetcenter.net/    ISSN 1523-6714
    
                                       2011 VV5
    
    Observations:
         K11V05V* C2011 11 03.45286 08 26 46.75 +66 40 27.5          19.3 VrEV027703
         K11V05V  C2011 11 03.45737 08 26 44.12 +66 40 35.5          20.0 VrEV027703
         K11V05V  C2011 11 03.46194 08 26 41.38 +66 40 40.8          19.5 VrEV027703
         K11V05V  C2011 11 03.46654 08 26 38.32 +66 40 47.2          20.1 VrEV027703
         K11V05V  C2011 11 03.52648 08 26 01.18 +66 42 03.6          19.9 VrEV027703
         K11V05V  C2011 11 03.52713 08 26 01.15 +66 42 03.6          19.7 VrEV027703
         K11V05V  C2011 11 03.52776 08 26 00.55 +66 42 04.4          20.0 VrEV027703
         K11V05V KC2011 11 03.87028 08 22 35.47 +66 48 48.4          19.4 RuEV027B18
         K11V05V KC2011 11 03.87659 08 22 31.74 +66 48 56.4          19.5 RuEV027B18
         K11V05V KC2011 11 03.87868 08 22 30.34 +66 48 58.7          19.2 RuEV027B18
         K11V05V KC2011 11 04.40364408 17 05.31 +66 59 15.7          19.5 RuEV027H36
         K11V05V KC2011 11 04.40760208 17 02.79 +66 59 20.4          19.5 RuEV027H36
         K11V05V KC2011 11 04.41151808 17 00.41 +66 59 25.2          19.4 RuEV027H36
         K11V05V KC2011 11 04.91028 08 11 46.60 +67 08 15.3          19.0 RvEV027C32
         K11V05V KC2011 11 04.91456 08 11 43.77 +67 08 21.2          18.7 RvEV027C32
         K11V05V KC2011 11 04.91890 08 11 41.03 +67 08 25.2          19.3 RvEV027C32
         K11V05V KC2011 11 04.92324 08 11 38.29 +67 08 29.7          19.0 RvEV027C32
         K11V05V KC2011 11 05.35273108 07 01.55 +67 15 45.7          19.9 VtEV027H21
         K11V05V KC2011 11 05.35592308 06 59.48 +67 15 49.0          20.7 VtEV027H21
         K11V05V KC2011 11 05.35917908 06 57.47 +67 15 51.8          20.5 VtEV027H21
         K11V05V KC2011 11 05.36236108 06 55.34 +67 15 55.7          20.4 VtEV027H21
    
    Observer details:
    703 Catalina Sky Survey.  Observer A. Boattini.  Measurers J. D. Ahern,
        E. C. Beshore, A. Boattini, G. J. Garradd, A. R. Gibbs, P. Tricarico,
        A. D. Grauer, R. E. Hill, R. A. Kowalski, S. M. Larson, R. H. McNaught.
        0.68-m Schmidt + CCD.
    B18 Terskol.  Observers M. Andreev, A. Sergeev, N. Parakhin, V. Kozlov,
        N. Karpov.  Measurer M. Andreev.  0.6-m f/12.8 Cassegrain + CCD.
    C32 Ka-Dar Observatory, TAU Station, Nizhny Arkhyz.  Observer V. Gerke.
        Measurer A. Novichonok.  0.40-m f/8 Ritchey-Chretien + CCD.
    H21 Astronomical Research Observatory, Westfield.  Observer R. Holmes.
        Measurers T. Vorobjov, L. Buzzi, S. Foglia.  0.61-m f/4.0 astrograph + CCD.
    H36 Sandlot Observatory, Scranton.  Observer G. Hug.  0.56-m reflector + CCD.
    
    Orbital elements:
    2011 VV5                                                 Earth MOID = 0.3454 AU
    Epoch 2011 Aug. 27.0 TT = JDT 2455800.5                 MPC
    M 359.87260              (2000.0)            P               Q
    n   0.68155566     Peri.    6.50960     +0.24293310     +0.88036300
    a   1.2787977      Node   278.13815     -0.90752451     +0.05794402
    e   0.6781908      Incl.   24.29953     -0.34261169     +0.47074778
    P   1.45           H   19.1           G   0.15           U   9
    Residuals in seconds of arc
    111103 703  0.2-  1.6-    111103 B18  0.4+  0.4+    111104 C32  0.8-  1.2+
    111103 703  0.6+  0.6+    111103 B18  1.2+  0.4+    111104 C32  0.5-  0.4+
    111103 703  1.0+  0.0     111103 B18  0.5+  0.0     111104 C32  0.2-  0.1+
    111103 703  0.4-  0.4+    111104 H36  0.1-  0.4-    111105 H21  0.4-  0.2-
    111103 703  1.9-  0.5+    111104 H36  0.0   0.2-    111105 H21  0.1-  0.2-
    111103 703  0.3+  0.3-    111104 H36  0.6+  0.0     111105 H21  0.7+  0.7-
    111103 703  1.0-  0.3-    111104 C32  0.3-  0.0     111105 H21  0.5+  0.0
    
    Ephemeris:
    2011 VV5                 a,e,i = 1.28, 0.68, 24                  q = 0.4115
    Date    TT    R. A. (2000) Decl.     Delta      r     Elong.  Phase     V
    2011 10 06    11 02 07.6 +50 15 44   0.5061  0.8607    59.4    90.2    20.5
    ...
    2011 10 21    10 03 47.8 +59 55 18   0.4964  1.0524    82.4    69.7    20.1
    ...
    2011 10 29    09 14 27.6 +64 19 00   0.4887  1.1463    95.2    59.7    20.0
    ...
    2011 11 04    08 21 14.3 +66 51 25   0.4849  1.2129   105.2    52.1    19.9
    2011 11 05    08 10 47.7 +67 09 48   0.4846  1.2237   106.9    50.8    19.8
    2011 11 06    07 59 55.8 +67 25 31   0.4844  1.2344   108.6    49.6    19.8
    ...
    2011 11 12    06 48 22.3 +67 51 16   0.4870  1.2970   118.8    42.0    19.7
    ...
    2011 11 20    05 16 11.4 +64 55 19   0.5030  1.3757   131.8    32.4    19.7
    ...
    2011 12 05    03 38 23.3 +52 54 49   0.5853  1.5102   146.9    20.9    19.9
    
    A. U. Tomatic                (C) Copyright 2011 MPC           M.P.E.C. 2011-V27
    

    Read MPEC 2011-V26 Read MPEC 2011-V28


    MPEC number:

    Enter an MPEC number in one of the following forms:

    • 1997-B01 (the full form)
    • J97B01 (the packed version of the full form)
    • B01 (the abbreviated form)